Time,TemperatureF,DewpointF,PressureIn,WindDirection,WindDirectionDegrees,WindSpeedMPH,WindSpeedGustMPH,Humidity,HourlyPrecipIn,Conditions,Clouds,dailyrainin,SoftwareType,DateUTC
2013-03-31 00:00:00,46.2,35.0,30.07,SE,144,0.0,1.0,64,0.00,,,0.00,weatherlink.com 1.10,2013-03-31 04:00:00,
2013-03-31 00:15:00,46.4,35.0,30.07,SE,144,0.0,0.0,65,0.00,,,0.00,weatherlink.com 1.10,2013-03-31 04:15:00,
2013-03-31 00:30:00,45.7,35.0,30.06,SE,144,0.0,0.0,66,0.00,,,0.00,weatherlink.com 1.10,2013-03-31 04:30:00,
2013-03-31 00:45:00,45.2,36.0,30.06,East,101,0.0,1.0,69,0.00,,,0.00,weatherlink.com 1.10,2013-03-31 04:45:00,
2013-03-31 01:00:00,44.6,35.0,30.05,East,101,0.0,1.0,70,0.00,,,0.00,weatherlink.com 1.10,2013-03-31 05:00:00,
2013-03-31 01:15:00,44.6,35.0,30.05,East,101,0.0,0.0,69,0.00,,,0.00,weatherlink.com 1.10,2013-03-31 05:15:00,
2013-03-31 01:45:00,44.9,36.0,30.04,South,174,0.0,2.0,71,0.00,,,0.00,weatherlink.com 1.10,2013-03-31 05:45:00,
2013-03-31 02:00:00,44.6,36.0,30.05,SSW,203,0.0,0.0,72,0.00,,,0.00,weatherlink.com 1.10,2013-03-31 06:00:00,
2013-03-31 02:15:00,43.5,38.0,30.05,SSW,203,0.0,1.0,82,0.01,,,0.01,weatherlink.com 1.10,2013-03-31 06:15:00,
2013-03-31 02:30:00,42.7,39.0,30.04,SSW,203,0.0,0.0,85,0.04,,,0.04,weatherlink.com 1.10,2013-03-31 06:30:00,
2013-03-31 02:45:00,42.5,40.0,30.03,ENE,65,1.0,2.0,90,0.08,,,0.08,weatherlink.com 1.10,2013-03-31 06:45:00,
2013-03-31 03:00:00,42.8,40.0,30.02,ENE,68,2.0,4.0,91,0.12,,,0.12,weatherlink.com 1.10,2013-03-31 07:00:00,
2013-03-31 03:15:00,42.5,41.0,30.01,NE,46,4.0,4.0,93,0.16,,,0.17,weatherlink.com 1.10,2013-03-31 07:15:00,
2013-03-31 03:30:00,42.7,41.0,30.01,East,98,0.0,3.0,94,0.15,,,0.02,weatherlink.com 1.10,2013-03-31 07:30:00,
2013-03-31 03:46:00,42.7,41.0,30.00,East,89,1.0,1.0,95,0.13,,,0.04,weatherlink.com 1.10,2013-03-31 07:46:00,
2013-03-31 04:01:00,43.4,42.0,29.99,East,87,1.0,1.0,95,0.12,,,0.07,weatherlink.com 1.10,2013-03-31 08:01:00,
2013-03-31 04:16:00,43.2,42.0,29.98,NNE,30,3.0,3.0,94,0.10,,,0.10,weatherlink.com 1.10,2013-03-31 08:16:00,
2013-03-31 04:31:00,43.2,42.0,29.97,NNE,26,2.0,3.0,96,0.10,,,0.12,weatherlink.com 1.10,2013-03-31 08:31:00,
2013-03-31 05:04:00,44.0,43.0,29.95,NE,51,1.0,1.0,96,0.08,,,0.16,weatherlink.com 1.10,2013-03-31 09:04:00,
2013-03-31 05:31:00,43.8,43.0,29.94,ENE,57,0.0,0.0,95,0.06,,,0.18,weatherlink.com 1.10,2013-03-31 09:31:00,
2013-03-31 06:01:00,44.0,43.0,29.93,NE,46,0.0,1.0,96,0.03,,,0.19,weatherlink.com 1.10,2013-03-31 10:01:00,
2013-03-31 06:16:00,44.0,43.0,29.92,ENE,68,0.0,1.0,96,0.04,,,0.21,weatherlink.com 1.10,2013-03-31 10:16:00,
2013-03-31 06:31:00,43.9,43.0,29.92,ENE,68,0.0,1.0,97,0.03,,,0.21,weatherlink.com 1.10,2013-03-31 10:31:00,
2013-03-31 06:46:00,44.1,43.0,29.92,ENE,68,0.0,1.0,97,0.03,,,0.22,weatherlink.com 1.10,2013-03-31 10:46:00,
2013-03-31 07:01:00,44.0,43.0,29.91,ENE,68,0.0,0.0,97,0.03,,,0.22,weatherlink.com 1.10,2013-03-31 11:01:00,
2013-03-31 07:16:00,44.0,43.0,29.92,ENE,68,0.0,0.0,97,0.02,,,0.23,weatherlink.com 1.10,2013-03-31 11:16:00,
2013-03-31 07:31:00,44.1,43.0,29.91,NNE,15,0.0,1.0,97,0.03,,,0.24,weatherlink.com 1.10,2013-03-31 11:31:00,
2013-03-31 07:46:00,44.7,44.0,29.91,NE,54,0.0,1.0,97,0.03,,,0.25,weatherlink.com 1.10,2013-03-31 11:46:00,
2013-03-31 08:01:00,44.7,44.0,29.91,NE,53,0.0,1.0,97,0.04,,,0.26,weatherlink.com 1.10,2013-03-31 12:01:00,
2013-03-31 08:16:00,44.9,44.0,29.92,NE,54,0.0,1.0,97,0.03,,,0.26,weatherlink.com 1.10,2013-03-31 12:16:00,
2013-03-31 08:31:00,45.2,44.0,29.91,NE,54,0.0,0.0,97,0.03,,,0.27,weatherlink.com 1.10,2013-03-31 12:31:00,
2013-03-31 08:46:00,45.6,45.0,29.91,NE,53,0.0,0.0,97,0.02,,,0.27,weatherlink.com 1.10,2013-03-31 12:46:00,
2013-03-31 09:01:00,46.0,45.0,29.91,NE,54,0.0,1.0,97,0.02,,,0.28,weatherlink.com 1.10,2013-03-31 13:01:00,
2013-03-31 09:16:00,46.4,46.0,29.91,NE,54,0.0,0.0,98,0.02,,,0.28,weatherlink.com 1.10,2013-03-31 13:16:00,
2013-03-31 09:31:00,46.9,46.0,29.91,NE,54,0.0,0.0,98,0.01,,,0.28,weatherlink.com 1.10,2013-03-31 13:31:00,
2013-03-31 09:46:00,47.1,46.0,29.91,SSW,208,0.0,1.0,97,0.02,,,0.29,weatherlink.com 1.10,2013-03-31 13:46:00,
2013-03-31 10:01:00,47.4,47.0,29.91,SSE,153,0.0,1.0,97,0.02,,,0.30,weatherlink.com 1.10,2013-03-31 14:01:00,
2013-03-31 10:16:00,47.5,47.0,29.91,SSE,165,0.0,1.0,97,0.02,,,0.30,weatherlink.com 1.10,2013-03-31 14:16:00,
2013-03-31 10:31:00,47.7,47.0,29.91,SSE,165,0.0,0.0,97,0.02,,,0.30,weatherlink.com 1.10,2013-03-31 14:31:00,
2013-03-31 10:46:00,48.1,47.0,29.90,WSW,243,0.0,2.0,97,0.01,,,0.30,weatherlink.com 1.10,2013-03-31 14:46:00,
2013-03-31 11:01:00,48.5,48.0,29.90,SSE,148,0.0,2.0,97,0.00,,,0.30,weatherlink.com 1.10,2013-03-31 15:01:00,
2013-03-31 11:16:00,48.8,48.0,29.90,SE,146,2.0,2.0,97,0.00,,,0.30,weatherlink.com 1.10,2013-03-31 15:16:00,
2013-03-31 11:32:00,49.5,49.0,29.89,SSE,165,1.0,3.0,97,0.00,,,0.30,weatherlink.com 1.10,2013-03-31 15:32:00,
2013-03-31 11:47:00,50.2,49.0,29.90,WSW,238,6.0,9.0,96,0.00,,,0.30,weatherlink.com 1.10,2013-03-31 15:47:00,
2013-03-31 12:17:00,50.5,49.0,29.90,SSW,195,2.0,8.0,95,0.00,,,0.30,weatherlink.com 1.10,2013-03-31 16:17:00,
2013-03-31 12:32:00,50.8,50.0,29.89,SSW,198,1.0,13.0,95,0.00,,,0.30,weatherlink.com 1.10,2013-03-31 16:32:00,
2013-03-31 12:47:00,51.0,49.0,29.89,SW,236,1.0,7.0,93,0.00,,,0.30,weatherlink.com 1.10,2013-03-31 16:47:00,
2013-03-31 13:02:00,51.2,49.0,29.90,SW,226,1.0,16.0,91,0.00,,,0.30,weatherlink.com 1.10,2013-03-31 17:02:00,
2013-03-31 13:17:00,52.0,49.0,29.89,South,179,4.0,14.0,90,0.00,,,0.30,weatherlink.com 1.10,2013-03-31 17:17:00,
2013-03-31 13:32:00,52.6,49.0,29.89,SSW,205,7.0,18.0,87,0.00,,,0.30,weatherlink.com 1.10,2013-03-31 17:32:00,
2013-03-31 13:47:00,53.0,48.0,29.90,SSW,208,10.0,15.0,84,0.00,,,0.30,weatherlink.com 1.10,2013-03-31 17:47:00,
2013-03-31 14:02:00,53.4,49.0,29.89,SSW,211,2.0,8.0,85,0.00,,,0.30,weatherlink.com 1.10,2013-03-31 18:02:00,
2013-03-31 14:17:00,54.4,49.0,29.90,SSW,202,5.0,14.0,81,0.00,,,0.30,weatherlink.com 1.10,2013-03-31 18:17:00,
2013-03-31 14:32:00,54.0,49.0,29.90,WNW,287,4.0,8.0,82,0.00,,,0.30,weatherlink.com 1.10,2013-03-31 18:32:00,
2013-03-31 14:47:00,53.9,48.0,29.90,WNW,284,2.0,9.0,80,0.00,,,0.30,weatherlink.com 1.10,2013-03-31 18:47:00,
2013-03-31 15:02:00,53.3,48.0,29.91,SW,231,1.0,10.0,81,0.00,,,0.30,weatherlink.com 1.10,2013-03-31 19:02:00,
2013-03-31 15:17:00,53.1,47.0,29.91,WSW,254,0.0,10.0,80,0.00,,,0.30,weatherlink.com 1.10,2013-03-31 19:17:00,
2013-03-31 15:32:00,53.1,47.0,29.92,SW,221,2.0,11.0,80,0.00,,,0.30,weatherlink.com 1.10,2013-03-31 19:32:00,
2013-03-31 15:47:00,53.1,47.0,29.91,NE,54,0.0,8.0,79,0.00,,,0.30,weatherlink.com 1.10,2013-03-31 19:47:00,
2013-03-31 16:02:00,53.1,47.0,29.91,WNW,297,3.0,6.0,80,0.00,,,0.30,weatherlink.com 1.10,2013-03-31 20:02:00,
2013-03-31 16:17:00,53.2,48.0,29.91,SW,217,1.0,9.0,81,0.00,,,0.30,weatherlink.com 1.10,2013-03-31 20:17:00,
2013-03-31 16:32:00,53.0,47.0,29.90,South,190,4.0,5.0,79,0.00,,,0.30,weatherlink.com 1.10,2013-03-31 20:32:00,
2013-03-31 16:47:00,53.2,47.0,29.89,WSW,249,1.0,4.0,79,0.00,,,0.30,weatherlink.com 1.10,2013-03-31 20:47:00,
2013-03-31 17:02:00,53.8,47.0,29.88,WSW,249,0.0,6.0,77,0.00,,,0.30,weatherlink.com 1.10,2013-03-31 21:02:00,
2013-03-31 17:17:00,53.9,47.0,29.88,SW,214,4.0,5.0,77,0.00,,,0.30,weatherlink.com 1.10,2013-03-31 21:17:00,
2013-03-31 17:32:00,53.9,47.0,29.88,ENE,75,0.0,5.0,77,0.00,,,0.30,weatherlink.com 1.10,2013-03-31 21:32:00,
2013-03-31 17:47:00,54.3,47.0,29.88,SSW,205,0.0,3.0,77,0.00,,,0.30,weatherlink.com 1.10,2013-03-31 21:47:00,
2013-03-31 18:02:00,54.4,46.0,29.87,SW,226,2.0,5.0,74,0.00,,,0.30,weatherlink.com 1.10,2013-03-31 22:02:00,
2013-03-31 18:32:00,54.7,47.0,29.89,WNW,289,1.0,3.0,75,0.00,,,0.30,weatherlink.com 1.10,2013-03-31 22:32:00,
2013-03-31 18:47:00,53.9,46.0,29.89,SW,215,1.0,5.0,75,0.00,,,0.30,weatherlink.com 1.10,2013-03-31 22:47:00,
2013-03-31 19:02:00,53.3,46.0,29.89,WNW,282,0.0,6.0,77,0.00,,,0.30,weatherlink.com 1.10,2013-03-31 23:02:00,
2013-03-31 19:17:00,52.9,46.0,29.89,North,6,0.0,4.0,77,0.00,,,0.30,weatherlink.com 1.10,2013-03-31 23:17:00,
2013-03-31 19:32:00,52.6,46.0,29.89,SSW,198,0.0,1.0,78,0.00,,,0.30,weatherlink.com 1.10,2013-03-31 23:32:00,
2013-03-31 19:47:00,52.4,46.0,29.88,SSE,150,0.0,2.0,78,0.00,,,0.30,weatherlink.com 1.10,2013-03-31 23:47:00,
2013-03-31 20:02:00,51.9,46.0,29.89,East,89,0.0,1.0,80,0.00,,,0.30,weatherlink.com 1.10,2013-04-01 00:02:00,
2013-03-31 20:32:00,50.3,45.0,29.90,NNE,19,0.0,1.0,82,0.00,,,0.30,weatherlink.com 1.10,2013-04-01 00:32:00,
2013-03-31 20:47:00,50.3,45.0,29.90,NNE,19,0.0,1.0,82,0.00,,,0.30,weatherlink.com 1.10,2013-04-01 00:47:00,
2013-03-31 21:02:00,50.5,45.0,29.90,North,350,0.0,2.0,82,0.00,,,0.30,weatherlink.com 1.10,2013-04-01 01:02:00,
2013-03-31 21:17:00,49.9,45.0,29.91,North,350,0.0,1.0,84,0.00,,,0.30,weatherlink.com 1.10,2013-04-01 01:17:00,
2013-03-31 21:32:00,49.1,45.0,29.91,North,350,0.0,0.0,85,0.00,,,0.30,weatherlink.com 1.10,2013-04-01 01:32:00,
2013-03-31 21:47:00,48.3,45.0,29.92,North,350,0.0,0.0,87,0.00,,,0.30,weatherlink.com 1.10,2013-04-01 01:47:00,
2013-03-31 22:02:00,48.1,45.0,29.92,North,350,0.0,0.0,88,0.00,,,0.30,weatherlink.com 1.10,2013-04-01 02:02:00,
2013-03-31 22:17:00,48.0,45.0,29.92,NNE,16,0.0,1.0,88,0.00,,,0.30,weatherlink.com 1.10,2013-04-01 02:17:00,
2013-03-31 22:32:00,47.6,45.0,29.92,North,358,0.0,1.0,89,0.00,,,0.30,weatherlink.com 1.10,2013-04-01 02:32:00,
2013-03-31 22:47:00,47.9,45.0,29.92,ESE,113,0.0,3.0,88,0.00,,,0.30,weatherlink.com 1.10,2013-04-01 02:47:00,
2013-03-31 23:02:00,48.1,45.0,29.92,ENE,65,0.0,4.0,88,0.00,,,0.30,weatherlink.com 1.10,2013-04-01 03:02:00,
2013-03-31 23:17:00,47.9,44.0,29.93,SSE,166,1.0,3.0,87,0.00,,,0.30,weatherlink.com 1.10,2013-04-01 03:17:00,
2013-03-31 23:32:00,47.5,44.0,29.93,WNW,286,3.0,3.0,87,0.00,,,0.30,weatherlink.com 1.10,2013-04-01 03:32:00,
2013-03-31 23:47:00,47.3,44.0,29.93,SSE,153,0.0,1.0,87,0.00,,,0.30,weatherlink.com 1.10,2013-04-01 03:47:00,